Location: Hickory_Viewmont
(35.7830°N, 81.3170°W)
Time: 08:11:23
(UTC-04:00)

Daily predictions for brighter satellites

Satellite Brightness Start Highest point End
(mag) Time Altitude Azimuth Time Altitude Azimuth Time Altitude Azimuth
Cosmos 1655 Rocket 4.1 20:26:12 10° S 20:32:19 58° E 20:38:30 10° NNE
Cosmos 44 3.2 20:30:22 10° NNW 20:34:48 65° ENE 20:39:24 10° SE
CZ-4C R/B 4.0 20:27:51 10° NW 20:34:57 48° WSW 20:42:35 10° S
Okean 2 Rocket 3.2 20:31:23 10° S 20:35:53 90° ESE 20:40:25 10° N
CZ-2D R/B 3.7 20:32:48 10° SE 20:36:28 42° ENE 20:40:07 10° N
ATLAS 2AS CENTAUR R/B 3.4 20:29:50 10° S 20:36:45 41° ESE 20:44:06 10° NE
Intercosmos 25 Rocket 4.3 20:37:13 10° NNW 20:40:13 42° W 20:43:28 10° SSW
BREEZE-M DEB (TANK) 2.1 20:40:36 10° SW 20:43:01 87° NW 20:48:13 10° NE
H-2A R/B 3.2 20:43:12 10° S 20:46:59 64° W 20:50:44 10° NNW
BREEZE-M DEB (TANK) 3.5 20:43:51 10° NW 20:47:05 61° NE 20:59:04 11° ESE
NOSS 2-3 (E) 3.8 20:43:06 10° SSW 20:47:36 62° ESE 20:52:40 10° NE
Delta 2 Rocket 3.7 20:43:55 10° SW 20:47:38 46° SSE 20:51:51 10° E
ALOS 4.1 20:48:02 10° SSW 20:52:13 32° W 20:56:25 10° NNW
Cosmos 2227 4.2 20:47:36 10° NNW 20:53:17 86° ENE 20:58:57 10° SSE
Resurs 1-3 3.7 20:50:32 10° SSE 20:54:50 59° ENE 20:59:10 10° N
USA 186 2.1 20:51:47 10° SSE 20:55:01 48° ENE 20:58:17 10° N
Lacrosse 5 1.9 20:50:56 10° SSW 20:55:55 61° SE 21:00:56 10° NE
Helios 1B rocket 3.9 20:53:23 10° NE 20:56:06 17° E 20:57:36 14° ESE
Cosmos 1452 Rocket 4.3 20:51:00 10° SSW 20:56:11 58° WNW 21:01:24 10° N
Cosmos 1420 Rocket 4.1 20:52:16 10° SSW 20:57:26 83° WNW 21:02:38 10° NNE
Cosmos 1850 Rocket 4.5 20:55:56 10° N 21:01:00 43° ENE 21:05:14 14° SE
Atlas Centaur 2 3.2 20:54:43 10° W 21:02:58 57° S 21:08:53 16° ESE
Meteor 2-11 Rocket 4.4 20:58:10 10° N 21:04:16 90° W 21:10:20 10° S
Cosmos 1602 4.2 21:05:56 10° SSW 21:09:43 61° W 21:13:31 10° N
SeaSat 1 2.4 21:05:00 10° NNE 21:09:53 64° ESE 21:14:46 10° SSW
Okean 1 Rocket 3.4 21:11:45 10° SSE 21:15:48 41° E 21:19:55 10° NNE
Cosmos 1300 Rocket 3.4 21:12:26 10° S 21:16:42 67° E 21:20:59 10° NNE
GENESIS II 4.1 21:13:15 10° NNW 21:17:11 90° NE 21:19:40 21° SSE
Cosmos 2263 Rocket 2.4 21:14:54 10° NNW 21:20:28 52° ENE 21:23:58 22° SE
NOSS 2-3 (C) 4.3 21:16:44 10° SW 21:21:17 64° NW 21:26:31 10° NNE
Cosmos 2322 Rocket 2.7 21:15:39 10° SSW 21:21:17 64° WNW 21:26:57 10° NNE
Cosmos 1025 Rocket 4.1 21:19:03 10° NNE 21:22:35 25° ENE 21:23:14 24° E
Meteor 1-11 Rocket 3.9 21:16:55 10° S 21:22:46 81° W 21:28:31 10° N
YAOGAN 6 3.2 21:22:13 30° ESE 21:23:10 36° ENE 21:26:26 10° N
SJ-11-01 4.4 21:21:00 19° SSE 21:24:12 57° ENE 21:28:47 10° N
GPS 2-05 Rocket1 2.7 21:22:08 10° W 21:25:32 70° S 21:26:33 40° ESE
Tiangong 1 2.0 21:23:32 10° NW 21:26:06 33° NNE 21:26:47 28° NE
Cosmos 1140 Rocket 4.1 21:21:36 10° NNW 21:26:43 56° WSW 21:31:49 10° S
S3M 4.1 21:21:31 10° N 21:27:48 79° W 21:34:09 10° S
Cosmos 614 Rocket 4.3 21:22:45 10° NNW 21:27:49 65° WSW 21:32:54 10° S
Cosmos 1553 Rocket 4.2 21:22:50 10° NNW 21:28:57 70° W 21:34:58 10° S
Spot 2 Rocket 3.9 21:24:24 10° S 21:29:27 64° WSW 21:34:31 10° NNW
Cosmos 2266 Rocket 3.8 21:23:42 10° S 21:29:43 75° E 21:35:44 10° N
Resurs 01 Rocket 2.6 21:26:34 10° S 21:30:50 46° W 21:35:08 10° NNW
Okean 1-7 Rocket 4.4 21:28:12 10° NNE 21:32:15 32° ENE 21:32:59 30° E
SL-16 R/B 3.2 21:28:02 10° SW 21:33:31 50° WNW 21:39:02 10° N
CZ-4B DEB 4.4 21:32:27 33° SSE 21:33:54 77° ENE 21:37:25 10° N
Cosmos 2315 Rocket 4.2 21:34:30 10° N 21:40:33 49° E 21:43:24 30° SE
Helios 1A 3.0 21:41:23 40° SE 21:42:42 61° ENE 21:46:54 10° N
Meteor 1-23 Rocket 4.1 21:38:20 10° N 21:43:55 73° E 21:47:03 27° SSE
Cosmos 2322 3.6 21:39:14 10° S 21:44:47 63° ESE 21:50:23 10° NNE
ERS-1 Rocket 3.5 21:46:40 36° E 21:47:38 40° ENE 21:52:19 10° N
DELTA 2 R/B (1) 4.4 21:42:46 10° W 21:47:58 39° SSW 21:50:09 28° SSE
ATLAS 3B R/B 3.2 21:45:23 10° NNW 21:51:42 42° NE 21:53:55 32° E
Cosmos 2360 Rocket 2.1 21:48:16 10° SSW 21:53:54 87° WNW 21:59:33 10° NNE
OAO 1 Rocket 4.3 21:49:21 10° W 21:54:42 82° S 21:56:29 43° E
Meteor 1-29 3.4 21:51:26 10° NNE 21:54:00 46° NE 21:54:00 46° NE
COSMOS 2428 3.1 21:55:48 40° ESE 21:55:48 40° ESE 22:01:03 10° NE
Cosmos 1939 Rocket 3.6 21:53:53 25° SSW 21:55:57 50° W 21:59:47 10° NNW
USA 267 4.4 21:51:52 15° S 21:56:45 36° SW 22:02:41 10° WNW
Cosmos 1536 4.4 21:53:37 10° SSW 21:57:22 36° W 22:01:09 10° NNW
Envisat 4.1 21:54:03 10° SSW 21:58:48 41° W 22:03:36 10° NNW
Lacrosse 5 rocket 3.8 21:59:38 10° W 22:01:23 13° WSW 22:03:09 10° SSW
Cosmos 1932 4.4 21:55:40 10° NNW 22:02:10 80° ENE 22:04:25 43° SE
H-2A R/B 3.1 22:08:23 28° ENE 22:08:23 28° ENE 22:12:06 10° N
Cosmos 2333 Rocket 4.3 22:13:04 12° NE 22:13:04 12° NE 22:13:30 10° NE
SAR-Lupe-4 4.5 22:12:33 43° N 22:12:33 43° N 22:15:06 10° N
NOAA 11 4.1 22:12:03 53° SSE 22:13:25 83° ENE 22:18:56 10° N
Cosmos 1238 Rocket 4.1 22:08:23 10° N 22:14:56 54° E 22:15:42 51° ESE
Cosmos 2333 4.3 22:16:47 53° E 22:16:47 53° E 22:21:39 10° NNE
Meteosat 1 Rocket2 4.4 22:12:32 10° WSW 22:17:49 45° S 22:18:09 45° SSE
Cosmos 1302 Rocket 3.8 22:19:33 69° SSE 22:20:09 79° ESE 22:25:26 10° NNE
MetOp-A 3.9 22:24:43 74° SSE 22:25:12 85° ENE 22:30:35 10° NNW
Cosmos 1486 Rocket 4.4 22:21:40 10° N 22:26:11 48° NE 22:26:11 48° NE
ATLAS 2AS CENTAUR R/B 4.1 22:20:26 10° WSW 22:27:41 44° NW 22:35:23 10° NNE
Aureole 3 Rocket 4.0 22:21:32 10° N 22:29:32 68° E 22:30:15 63° ESE
Delta 2 Rocket 4.1 22:25:48 10° W 22:28:55 50° W 22:28:55 50° W
Helios 1B rocket 4.2 22:27:48 10° N 22:31:26 31° WNW 22:33:57 17° SW
SPOT 5 3.4 22:33:36 49° NNE 22:33:36 49° NNE 22:37:16 10° N
BREEZE M DEB (TANK) 3.3 22:25:22 10° WSW 22:33:05 51° NW 22:33:38 46° N
Cosmos 1241 Rocket 4.5 22:26:38 10° SSW 22:33:13 89° NW 22:39:45 10° NNE
Intelsat 5-1 Rocket 4.3 22:17:27 10° WSW 22:34:54 42° SSW 22:36:16 40° S
Lacrosse 5 4.2 22:35:12 10° W 22:39:13 23° NW 22:43:15 10° NNE
Cosmos 1066 Rocket 4.2 22:36:22 10° N 22:41:15 70° NNE 22:41:15 70° NNE
Centaur D AC-29 4.1 22:39:16 10° SW 22:43:39 17° SSW 22:43:39 17° SSW
ARGOS 3.3 22:49:54 69° WNW 22:49:54 69° WNW 22:54:59 10° NNW
Atlas Centaur 2 3.6 22:45:07 10° W 22:51:30 34° SSW 22:51:30 34° SSW
Nadezhda 1 Rocket 4.3 22:47:43 10° N 22:53:09 57° NE 22:53:09 57° NE
Cosmos 2263 Rocket 4.3 23:00:06 10° WNW 23:03:53 18° W 23:05:42 16° WSW
Cosmos 2278 Rocket 3.7 23:03:14 10° N 23:06:39 28° NNE 23:06:39 28° NNE
SPOT 1/Viking Rocket 4.4 23:10:41 48° NNW 23:10:41 48° NNW 23:14:29 10° NNW
Cosmos 1818 4.5 23:10:07 44° WNW 23:10:41 45° NW 23:15:55 10° NNE
Cosmos 1844 Rocket 3.3 23:05:49 10° NNW 23:10:10 54° NNW 23:10:10 54° NNW
Terra 3.7 23:16:55 25° N 23:16:55 25° N 23:18:58 10° N
Cosmos 2219 Rocket 3.3 23:24:26 41° N 23:24:26 41° N 23:28:14 10° NNE
NOSS 3-2 (A) 4.0 23:18:16 10° NNW 23:25:38 80° NNE 23:25:38 80° NNE
USA 238 DEB 4.2 23:21:02 10° NW 23:27:24 52° W 23:27:24 52° W
USA 238 4.2 23:21:07 10° NW 23:27:30 52° W 23:27:30 52° W
ATLAS 3B R/B 3.9 23:36:25 10° NW 23:41:11 31° W 23:41:11 31° W
H-2A R/B 4.1 23:49:02 22° WNW 23:49:02 22° WNW 23:51:25 10° NW
Cosmos 2333 Rocket 3.8 23:55:01 31° NNW 23:55:01 31° NNW 23:58:22 10° N
